Weather History for Spearfish, SD

Change the Weather History Date:

Friday, January 3, 2014

  Actual Average (KEFC) Record (KEFC)
Temperature  
Mean Temperature 36 °F -  
Max Temperature 48 °F 33 °F 65 °F (1962)
Min Temperature 23 °F 7 °F -25 °F (1968)
Degree Days  
Heating Degree Days 30    
Moisture  
Dew Point 25 °F    
Average Humidity 57    
Maximum Humidity 100    
Minimum Humidity 40    
Precipitation  
Precipitation 0.86 in - - ()
Sea Level Pressure  
Sea Level Pressure 29.57 in    
Wind  
Wind Speed 18 mph (West)    
Max Wind Speed 33 mph    
Max Gust Speed 45 mph    
Visibility 10 miles    
Events Rain , Snow    
Averages and records for this station are not official NWS values.
T = Trace of Precipitation, MM = Missing Value Source: NWS Daily Summary

Daily Weather History Graph

Daily Weather History Graph

Search for Another Location

Airport:

Trip Planner

Search our weather history database for the weather conditions in past years. The results will help you decide how hot, cold, wet, or windy it might be!

Date:

Astronomy

Jan. 03, 2014 Rise Set
Actual Time 8:31 AM CST 5:28 PM CST
Civil Twilight 7:58 AM CST 6:01 PM CST
Nautical Twilight 7:21 AM CST 6:37 PM CST
Astronomical Twilight 6:46 AM CST 7:13 PM CST
Moon 9:52 AM CST (1/3) 8:48 PM CST (1/3)
Length of Visible Light 10h 02m
Length of Day
8h 56m
Waxing Crescent, 8% of the Moon is Illuminated
Jan 3
Waxing Crescent
Jan 7
First Quarter
Jan 15
Full
Jan 23
Last Quarter
Jan 30
New

Hourly Weather History & Observations

Time (CST) Temp. Windchill Dew Point Humidity Pressure Visibility Wind Dir Wind Speed Gust Speed Precip Events Conditions
12:15 AM 42.8 °F 34.5 °F 24.8 °F 49% 29.78 in 10.0 mi WSW 18.4 mph 26.5 mph N/A   Clear
12:35 AM 42.8 °F 35.8 °F 24.8 °F 49% 29.78 in 10.0 mi WSW 13.8 mph 23.0 mph N/A   Clear
12:55 AM 42.8 °F 35.8 °F 24.8 °F 49% 29.77 in 10.0 mi WSW 13.8 mph 21.9 mph N/A   Clear
1:15 AM 42.8 °F 34.5 °F 24.8 °F 49% 29.75 in 10.0 mi WSW 18.4 mph 27.6 mph N/A   Clear
1:35 AM 44.6 °F 36.9 °F 24.8 °F 46% 29.74 in 10.0 mi SW 18.4 mph 25.3 mph N/A   Clear
1:55 AM 42.8 °F 34.8 °F 24.8 °F 49% 29.73 in 10.0 mi SW 17.3 mph 28.8 mph N/A   Clear
2:15 AM 44.6 °F 36.4 °F 24.8 °F 46% 29.72 in 10.0 mi SW 20.7 mph 27.6 mph N/A   Clear
2:35 AM 44.6 °F 36.9 °F 24.8 °F 46% 29.71 in 10.0 mi SW 18.4 mph 28.8 mph N/A   Clear
2:55 AM 44.6 °F 37.2 °F 24.8 °F 46% 29.70 in 10.0 mi WSW 17.3 mph 24.2 mph N/A   Clear
3:15 AM 44.6 °F 36.6 °F 24.8 °F 46% 29.68 in 10.0 mi SW 19.6 mph - N/A   Clear
3:35 AM 44.6 °F 35.9 °F 24.8 °F 46% 29.68 in 10.0 mi SW 23.0 mph 27.6 mph N/A   Clear
3:55 AM 46.4 °F 38.3 °F 24.8 °F 43% 29.67 in 10.0 mi SW 23.0 mph 29.9 mph N/A   Clear
4:15 AM 46.4 °F 38.3 °F 24.8 °F 43% 29.65 in 10.0 mi SW 23.0 mph 32.2 mph N/A   Clear
4:35 AM 44.6 °F 36.6 °F 24.8 °F 46% 29.64 in 10.0 mi SW 19.6 mph 31.1 mph N/A   Clear
4:55 AM 46.4 °F 38.7 °F 24.8 °F 43% 29.62 in 10.0 mi SW 20.7 mph 28.8 mph N/A   Clear
5:15 AM 46.4 °F 39.5 °F 24.8 °F 43% 29.61 in 10.0 mi SW 17.3 mph 27.6 mph N/A   Clear
5:35 AM 46.4 °F 38.5 °F 24.8 °F 43% 29.59 in 10.0 mi SW 21.9 mph 32.2 mph N/A   Clear
5:55 AM 46.4 °F 38.5 °F 24.8 °F 43% 29.58 in 10.0 mi SSW 21.9 mph 26.5 mph N/A   Clear
6:15 AM 44.6 °F 36.9 °F 24.8 °F 46% 29.57 in 10.0 mi SSW 18.4 mph 28.8 mph N/A   Clear
6:35 AM 44.6 °F 36.4 °F 24.8 °F 46% 29.56 in 10.0 mi SSW 20.7 mph - N/A   Clear
6:55 AM 44.6 °F 38.4 °F 24.8 °F 46% 29.55 in 10.0 mi SW 12.7 mph - N/A   Clear
7:15 AM 44.6 °F 40.7 °F 24.8 °F 46% 29.54 in 10.0 mi WSW 6.9 mph - N/A   Clear
7:35 AM 42.8 °F - 24.8 °F 49% 29.54 in 10.0 mi Calm Calm - N/A   Clear
7:55 AM 44.6 °F 37.4 °F 24.8 °F 46% 29.51 in 10.0 mi SSW 16.1 mph - N/A   Clear
8:15 AM 44.6 °F 36.6 °F 24.8 °F 46% 29.49 in 10.0 mi SW 19.6 mph 24.2 mph N/A   Clear
8:35 AM 46.4 °F 38.3 °F 24.8 °F 43% 29.48 in 10.0 mi SSW 23.0 mph 26.5 mph N/A   Clear
8:55 AM 46.4 °F 38.7 °F 24.8 °F 43% 29.47 in 10.0 mi SSW 20.7 mph 27.6 mph N/A   Clear
9:15 AM 46.4 °F 37.7 °F 24.8 °F 43% 29.46 in 10.0 mi SSW 26.5 mph 32.2 mph N/A   Clear
9:35 AM 46.4 °F 38.3 °F 24.8 °F 43% 29.45 in 10.0 mi SW 23.0 mph - N/A   Clear
9:55 AM 46.4 °F 38.1 °F 24.8 °F 43% 29.44 in 10.0 mi SW 24.2 mph 29.9 mph N/A   Clear
10:15 AM 46.4 °F 38.5 °F 24.8 °F 43% 29.44 in 10.0 mi SW 21.9 mph 32.2 mph N/A   Clear
10:35 AM 46.4 °F 37.9 °F 24.8 °F 43% 29.42 in 10.0 mi SSW 25.3 mph 34.5 mph N/A   Clear
10:55 AM 48.2 °F - 24.8 °F 40% 29.43 in 10.0 mi WNW 11.5 mph 31.1 mph N/A   Clear
11:15 AM 46.4 °F 39.5 °F 24.8 °F 43% 29.43 in 10.0 mi West 17.3 mph 24.2 mph N/A   Clear
11:35 AM 46.4 °F 40.4 °F 24.8 °F 43% 29.44 in 10.0 mi WNW 13.8 mph 24.2 mph N/A   Clear
11:55 AM 46.4 °F 40.4 °F 24.8 °F 43% 29.43 in 10.0 mi WSW 13.8 mph 20.7 mph N/A   Clear
12:15 PM 46.4 °F 41.5 °F 24.8 °F 43% 29.41 in 10.0 mi West 10.4 mph - N/A   Clear
12:35 PM 46.4 °F 41.5 °F 26.6 °F 46% 29.40 in 10.0 mi West 10.4 mph - N/A   Clear
12:55 PM 46.4 °F 41.9 °F 26.6 °F 46% 29.40 in 10.0 mi West 9.2 mph 16.1 mph N/A   Clear
1:15 PM 48.2 °F - 26.6 °F 43% 29.39 in 10.0 mi West 13.8 mph 19.6 mph N/A   Clear
1:35 PM 48.2 °F - 26.6 °F 43% 29.38 in 10.0 mi West 18.4 mph 25.3 mph N/A   Clear
1:55 PM 48.2 °F - 26.6 °F 43% 29.38 in 10.0 mi West 20.7 mph 27.6 mph N/A   Clear
2:15 PM 48.2 °F - 28.4 °F 46% 29.40 in 10.0 mi WNW 16.1 mph 34.5 mph N/A   Clear
2:35 PM 48.2 °F - 30.2 °F 50% 29.42 in 10.0 mi WNW 21.9 mph 34.5 mph N/A   Clear
2:55 PM 44.6 °F 37.4 °F 33.8 °F 66% 29.43 in 10.0 mi West 16.1 mph 29.9 mph N/A   Clear
3:15 PM 44.6 °F 38.4 °F 32.0 °F 61% 29.43 in 10.0 mi West 12.7 mph 18.4 mph N/A   Partly Cloudy
3:35 PM 44.6 °F 38.1 °F 32.0 °F 61% 29.44 in 10.0 mi West 13.8 mph - N/A   Scattered Clouds
3:55 PM 41.0 °F 31.9 °F 32.0 °F 70% 29.46 in 10.0 mi WNW 19.6 mph 31.1 mph N/A Rain Light Rain
4:15 PM 39.2 °F 30.2 °F 33.8 °F 81% 29.47 in 5.0 mi WNW 17.3 mph 29.9 mph 0.03 in Rain Light Rain
4:35 PM 39.2 °F 29.0 °F 33.8 °F 81% 29.48 in 8.0 mi West 21.9 mph 29.9 mph 0.04 in Rain Light Rain
4:55 PM 35.6 °F 23.4 °F 32.0 °F 87% 29.51 in 2.0 mi WNW 25.3 mph 33.4 mph 0.15 in   Clear
5:15 PM 32.0 °F 19.8 °F 32.0 °F 100% 29.53 in 4.0 mi West 20.7 mph 35.7 mph 0.56 in Snow Light Snow
5:35 PM 33.8 °F 23.5 °F 28.4 °F 81% 29.53 in 10.0 mi West 16.1 mph 20.7 mph 0.56 in   Mostly Cloudy
5:55 PM 35.6 °F 27.1 °F 26.6 °F 70% 29.52 in 10.0 mi West 12.7 mph - 0.56 in   Overcast
6:15 PM 35.6 °F 27.5 °F 26.6 °F 70% 29.52 in 10.0 mi West 11.5 mph - N/A   Overcast
6:35 PM 35.6 °F 28.6 °F 24.8 °F 65% 29.52 in 10.0 mi West 9.2 mph - N/A   Mostly Cloudy
6:55 PM 35.6 °F 28.6 °F 24.8 °F 65% 29.52 in 10.0 mi West 9.2 mph 16.1 mph N/A   Overcast
7:15 PM 35.6 °F 28.0 °F 24.8 °F 65% 29.54 in 10.0 mi WNW 10.4 mph - N/A   Overcast
7:35 PM 35.6 °F 27.1 °F 24.8 °F 65% 29.54 in 10.0 mi NW 12.7 mph - N/A   Overcast
7:55 PM 35.6 °F 24.2 °F 24.8 °F 65% 29.57 in 10.0 mi NW 21.9 mph 31.1 mph N/A   Overcast
8:15 PM 32.0 °F 17.4 °F 24.8 °F 75% 29.59 in 10.0 mi NW 31.1 mph 39.1 mph N/A   Overcast
8:35 PM 32.0 °F 18.6 °F 24.8 °F 75% 29.60 in 10.0 mi NW 25.3 mph 40.3 mph N/A   Overcast
8:55 PM 28.4 °F 12.7 °F 23.0 °F 80% 29.63 in 10.0 mi WNW 29.9 mph 40.3 mph N/A   Overcast
9:15 PM 26.6 °F 9.6 °F 23.0 °F 86% 29.67 in 10.0 mi NW 33.4 mph 43.7 mph N/A   Overcast
9:35 PM 24.8 °F 8.4 °F 19.4 °F 80% 29.70 in 9.0 mi NW 27.6 mph 44.9 mph N/A   Overcast
9:55 PM 24.8 °F 9.0 °F 19.4 °F 80% 29.74 in 5.0 mi WNW 25.3 mph 36.8 mph 0.08 in Snow Light Snow
10:15 PM 24.8 °F 9.0 °F 19.4 °F 80% 29.76 in 9.0 mi WNW 25.3 mph 35.7 mph N/A Snow Light Snow
10:35 PM 23.0 °F 6.3 °F 17.6 °F 80% 29.77 in 10.0 mi NW 26.5 mph 33.4 mph 0.01 in   Mostly Cloudy
10:55 PM 23.0 °F 7.2 °F 17.6 °F 80% 29.79 in 10.0 mi WNW 23.0 mph 28.8 mph 0.01 in Snow Light Snow
11:15 PM 23.0 °F 9.2 °F 17.6 °F 80% 29.80 in 5.0 mi NW 17.3 mph 33.4 mph 0.02 in Snow Light Snow
11:35 PM 23.0 °F 10.1 °F 17.6 °F 80% 29.81 in 10.0 mi NW 15.0 mph 23.0 mph 0.03 in Snow Light Snow
11:55 PM 23.0 °F 8.7 °F 17.6 °F 80% 29.82 in 5.0 mi NW 18.4 mph 26.5 mph 0.06 in Snow Light Snow